This is the latest recevied weather packets stored in our database for station/object NK0Z-13. If no packets are shown the sender has not sent any weather packets the latest 10 day(s).
| Time | Temp. | Humidity | Pressure | Rain* | Wind** | Luminosity | Snow |
|---|---|---|---|---|---|---|---|
| 1777987748 | 10.56° C | 63% | 1013.3 hPa | 0 mm | - | 45 W/m² | - |
| 1777987149 | 10.56° C | 62% | 1012.9 hPa | 0 mm | - | 68 W/m² | - |
| 1777986543 | 11.11° C | 60% | 1012.5 hPa | 0 mm | - | 39 W/m² | - |
| 1777985944 | 11.11° C | 60% | 1012.1 hPa | 0 mm | - | 17 W/m² | - |
| 1777985343 | 10.56° C | 61% | 1012.1 hPa | 0 mm | - | 35 W/m² | - |
| 1777984742 | 10.56° C | 60% | 1012.1 hPa | 0 mm | - | 21 W/m² | - |
| 1777984140 | 10.56° C | 59% | 1012 hPa | 0 mm | - | 33 W/m² | - |
| 1777983540 | 10.56° C | 60% | 1011.7 hPa | 0 mm | - | 20 W/m² | - |
| 1777982939 | 10.56° C | 60% | 1011.4 hPa | 0 mm | - | 11 W/m² | - |
| 1777982334 | 10.56° C | 60% | 1011.8 hPa | 0 mm | - | 7 W/m² | - |
| 1777981729 | 11.11° C | 59% | 1011.4 hPa | 0 mm | - | 3 W/m² | - |
| 1777981127 | 10.56° C | 59% | 1011.6 hPa | 0 mm | - | 1 W/m² | - |
| 1777980525 | 11.11° C | 59% | 1011.6 hPa | 0 mm | - | 0 W/m² | - |
| 1777979925 | 11.11° C | 59% | 1011.2 hPa | 0 mm | - | 0 W/m² | - |
| 1777979322 | 11.11° C | 58% | 1010.9 hPa | 0 mm | - | 0 W/m² | - |
| 1777978721 | 11.11° C | 58% | 1010.5 hPa | 0 mm | - | 0 W/m² | - |
| 1777978119 | 11.11° C | 58% | 1010.2 hPa | 0 mm | - | 0 W/m² | - |
| 1777977519 | 11.11° C | 58% | 1009.9 hPa | 0 mm | - | 0 W/m² | - |
| 1777976914 | 11.11° C | 59% | 1009.7 hPa | 0 mm | - | 0 W/m² | - |
| 1777976313 | 11.67° C | 59% | 1009.4 hPa | 0 mm | - | 0 W/m² | - |
| 1777975710 | 11.67° C | 58% | 1009.3 hPa | 0 mm | - | 0 W/m² | - |
| 1777975108 | 11.67° C | 60% | 1009.7 hPa | 0 mm | - | 0 W/m² | - |
| 1777974507 | 11.67° C | 64% | 1009.7 hPa | 0 mm | - | 0 W/m² | - |
| 1777973905 | 11.67° C | 63% | 1009.3 hPa | 0 mm | - | 0 W/m² | - |
| 1777973300 | 11.67° C | 61% | 1009.3 hPa | 0 mm | - | 0 W/m² | - |
* Rain latest hour (hover to see other rain measurements)
** Current wind speed in m/s (hover to see current wind gust speed)